Flag for Colombia Weather past 2 weeks in Villavicencio, Colombia

Now
48 °F

Passing clouds.


Feels Like: 48 °F
Forecast: 67 / 90 °F
Wind: 2 mph from North

Location: Bogota / Eldorado

Current Time: Sep 4, 2015 at 3:25:01 AM

Latest Report: Sep 4, 2015 at 3:00 AM


Visibility: N/A

Pressure: 30.34 "Hg

Humidity: 100%

Dew point: 48 °F

Location of VillavicencioLocation

Historic Weather in Villavicencio — Graph

°F

Villavicencio temperature yesterday

Maximum temperature yesterday: 66 °F (at 2:00 PM)
Minimum temperature yesterday: 43 °F (at 4:00 AM)
Average temperature yesterday: 56 °F

Past Weeks' High & Low Weather Summary

 TemperatureHumidityPressure
High68 °F (Aug 20, 3:00 PM)100% (Aug 23, 6:00 AM)30.46 "Hg (Aug 23, 6:00 AM)
Low41 °F (Sep 2, 5:00 AM)37% (Aug 29, 4:00 PM)30.08 "Hg (Aug 27, 9:00 PM)
Average57 °F70%30.34 "Hg
* Reported Aug 20 2:00 AM — Sep 4 2:00 AM, Villavicencio, Weather by CustomWeather, © 2015

Note: Actual official high and low records may vary slightly from our data, if they occured in-between our weather recording intervals... More about our weather records

Advertising

Villavicencio weather history for previous 24 hours

 ConditionsComfort  
Time TempWeatherWind HumidityBarometerVisibility
2:00 AM
Fri, Sep 4
48 °FPassing clouds.2 mph94%30.35 "HgN/A
1:00 AM50 °FPassing clouds.2 mph88%30.37 "HgN/A
12:00 AM48 °FPassing clouds.2 mph94%30.38 "HgN/A
11:00 PM
Thu, Sep 3
50 °FClear.5 mph88%30.39 "HgN/A
10:00 PM54 °FPassing clouds.5 mph77%30.39 "HgN/A
9:00 PM54 °FPassing clouds.6 mph77%30.37 "HgN/A
8:00 PM55 °FPassing clouds.3 mph67%30.34 "HgN/A
7:00 PM59 °FPassing clouds.7 mph59%30.31 "HgN/A
6:00 PM63 °FScattered clouds.9 mph45%30.29 "HgN/A
5:00 PM66 °FScattered clouds.13 mph40%30.27 "HgN/A
4:00 PM66 °FScattered clouds.9 mph40%30.28 "HgN/A
3:00 PM66 °FBroken clouds.13 mph40%30.30 "HgN/A
2:00 PM66 °FPartly sunny.13 mph40%30.31 "HgN/A
1:00 PM64 °FPartly sunny.12 mph46%30.34 "HgN/A
12:00 PM64 °FBroken clouds.14 mph46%30.38 "HgN/A
11:00 AM63 °FBroken clouds.14 mph49%30.40 "HgN/A
10:00 AM61 °FPartly sunny.9 mph52%30.39 "HgN/A
9:00 AM59 °FRefreshingly cool.5 mph59%30.40 "HgN/A
8:00 AM57 °FScattered clouds.9 mph67%30.40 "HgN/A
7:00 AM48 °FScattered clouds.3 mph100%30.37 "HgN/A
6:00 AM45 °FPartly sunny.No wind93%30.33 "HgN/A
5:00 AM45 °FPassing clouds.3 mph93%30.33 "HgN/A
4:00 AM43 °FPassing clouds.2 mph93%30.33 "HgN/A
3:00 AM45 °FPassing clouds.5 mph93%30.34 "HgN/A
Weather by CustomWeather, © 2015

See weather overviewHow to use our weather pages